Regional Weather Roundup
Issued by NWS

Home | Current Version | Previous Version | Graphics & Text | Print | Product List | Glossary Off
Versions: 1 2 3 4 5 6 7 8 9 10 11 12 13 14 15 16 17 18 19 20 21 22 23 24 25 26 27

000
ASUS45 KBOU 251107
RWRCO

WEATHER ROUNDUP FOR COLORADO
NATIONAL WEATHER SERVICE DENVER/BOULDER CO
500 AM MDT SAT OCT 25 2014

NOTE: "FAIR" INDICATES FEW OR NO CLOUDS BELOW 12000 FEET WITH NO
SIGNIFICANT WEATHER AND/OR OBSTRUCTIONS TO VISIBILITY.

COZ001>005-013-030-031-251200-
...NORTHWEST COLORADO...

CITY           SKY/WX    TMP DP  RH WIND       PRES   REMARKS
CRAIG          CLEAR     28  23  81 CALM      30.31F
HAYDEN         CLEAR     37  25  60 SE12      30.32F
MEEKER         CLEAR     34  27  75 NE5       30.32S WCI  30
MOUNT WERNER   NOT AVBL
STEAMBOAT SPGS CLEAR     34  24  68 CALM      30.35S
WALDEN         PTCLDY    34  18  51 SE8       30.39S WCI  27
$$

COZ006>008-011-251200-
...WEST CENTRAL VALLEYS...

CITY           SKY/WX    TMP DP  RH WIND       PRES   REMARKS
GRAND JUNCTION CLEAR     45  32  60 CALM      30.25S
MONTROSE       PTCLDY    39  29  67 S6        30.33S
EAGLE          CLEAR     30  27  86 CALM      30.42S
RIFLE          CLEAR     35  30  82 E3        30.31S
DELTA          PTCLDY    44  31  58 NE9       30.30S
NUCLA          PTCLDY    43  25  49 SE10      30.35S
$$

COZ017>023-064>068-251200-
...SOUTHWEST COLORADO...

CITY           SKY/WX    TMP DP  RH WIND       PRES   REMARKS
DURANGO        PTCLDY    35  31  85 N3        30.36F
CORTEZ         CLEAR     33  26  75 E3        30.31F
PAGOSA SPRINGS PTCLDY    37  31  78 CALM      30.42S
TELLURIDE      PTCLDY    42  20  42 SE5       30.49F
WOLF CREEK PAS PTCLDY    37  25  60 SW13        N/A
$$

COZ009-010-012-014-032>034-037-058>063-251200-
...CENTRAL COLORADO...

CITY           SKY/WX    TMP DP  RH WIND       PRES   REMARKS
ASPEN          CLEAR     32  20  61 CALM      30.40F
BUENA VISTA    CLEAR     36  21  53 N6        30.43R
COPPER MTN     PTCLDY    45  -6  12 SW6       30.62S
BERTHOUD PASS  FAIR      34  32  93 W15       30.65R WCI  24
COTTONWOOD PAS CLEAR     50  -8   9 NW7       30.50F
GUNNISON       CLEAR     25  16  68 CALM      30.49S
KREMMLING      PTCLDY    27  23  86 CALM        N/A
LEADVILLE      CLEAR     29  12  49 E3        30.50F
MONARCH PASS   PTCLDY    37  10  32 W23       30.71F
SALIDA         CLEAR     40  22  47 W6        30.49S
SUNLIGHT       CLEAR     43  18  36 CALM      30.56S
WILKERSON PASS NOT AVBL
$$

COZ069>075-251200-
...SAN LUIS VALLEY/SANGRE DE CRISTO MOUNTAINS...

CITY           SKY/WX    TMP DP  RH WIND       PRES   REMARKS
ALAMOSA        MOCLDY    25  20  81 SE5       30.41S WCI  19
LA VETA PASS   PTCLDY    45  21  39 S7        30.51F
SAGUACHE       PTCLDY    39  21  48 N10       30.42S
$$

COZ035-036-038>040-251200-
...NORTHERN COLORADO FRONT RANGE...

CITY           SKY/WX    TMP DP  RH WIND       PRES   REMARKS
DENVER INTL AP CLEAR     53  22  29 SW7       30.21S
DMNS CITY PARK   N/A     47  27  46 S1G7      30.21S
AURORA         CLEAR     52  22  30 S12       30.23S
FRONT RANGE AP CLEAR     54  27  35 SW3       30.22S
ERIE MUNI ARPT CLEAR     37  29  74 CALM      30.21R
BOULDER MUN AP CLEAR     52  27  37 CALM      30.21R
CENTENNIAL     CLEAR     45  23  42 S7        30.23S
BROOMFIELD     CLEAR     57  19  23 CALM      30.23R
FORT COLLINS   CLEAR     46  34  61 NW3       30.21S
LONGMONT       CLEAR     38  30  71 SW3       30.23R
$$

COZ041-046-047-076>085-087-088-251200-
...PIKES PEAK/PALMER DIVIDE AND SOUTHERN FOOTHILLS...

CITY           SKY/WX    TMP DP  RH WIND       PRES   REMARKS
COLO. SPRINGS  CLEAR     54  18  24 N10       30.25F
A. F. ACADEMY  CLEAR     49  18  29 NE3       30.27S
ELLICOTT       NOT AVBL
FALCON         CLEAR     53  12  19 NW5       30.29F
FORT CARSON    CLEAR     49  23  35 N5        30.22S
LIMON          CLEAR     48  30  49 NW12      30.20F
MONUMENT HILL  CLEAR     45  18  33 SW9       30.29F
TRINIDAD       PTCLDY    50  27  40 W14       30.24S
$$

COZ042>045-048>051-090-091-251200-
...NORTHEAST COLORADO...

CITY           SKY/WX    TMP DP  RH WIND       PRES   REMARKS
GREELEY ARPT   CLEAR     36  25  64 CALM      30.20R
AKRON          PTCLDY    45  28  51 W12       30.15F
BURLINGTON     CLEAR     46  32  58 W8        30.13S
WRAY           CLEAR     43  32  65 SW5       30.12S
STERLING       PTCLDY    36  32  87 S5        30.14S
HOLYOKE        CLEAR     43  32  65 NW5       30.11S
FORT MORGAN    PTCLDY    39  31  71 W8        30.17S
$$

COZ086-089-092>099-251200-
...SOUTHEAST COLORADO...

CITY           SKY/WX    TMP DP  RH WIND       PRES   REMARKS
PUEBLO         PTCLDY    50  27  40 SW9       30.17F
LA JUNTA       CLEAR     44  33  65 NW7       30.14S
LAMAR          PTCLDY    42  37  82 W6        30.11R
SPRINGFIELD      N/A     47  36  65 W5        30.14F
$$



USA.gov is the U.S. government's official web portal to all federal, state and local government web resources and services.